Simultaneous Nadir Overpasses (SNOs) Predictions

Prediction of SNOs between AQUA and NOAA-19 Satellite Orbit:

Table of predicted SNOs for the next 14.0 days since TLE Epoch: 6/7/2025
Index Date (AQUA) Time (AQUA) Lat,Lon (AQUA) SZA (AQUA ) Date (NOAA-19) Time (NOAA-19) Lat,Lon (NOAA-19) SZA (NOAA-19 ) Distance(km) Time Diff (sec)
1 06/08/2025 10:42:01 75.28, 26.23 52.43 06/08/2025 10:40:55 75.17, 23.35 52.24 82.35 66
2 06/08/2025 11:31:27 -75.76,-167.50 127.14 06/08/2025 11:31:46 -75.74,-167.57 127.15 2.56 19
3 06/10/2025 12:49:21 -75.31, 174.36 127.71 06/10/2025 12:48:14 -75.26, 171.81 127.84 72.15 67
4 06/10/2025 13:38:49 75.77, -19.31 52.71 06/10/2025 13:38:55 75.76, -19.25 52.71 2.09 6
5 06/12/2025 15:46:08 -75.77, 128.92 127.43 06/12/2025 15:46:16 -75.74, 128.89 127.46 2.87 8
6 06/14/2025 17:53:27 75.73, -82.75 52.43 06/14/2025 17:53:24 75.76, -82.79 52.46 3.14 3
7 06/16/2025 20:00:46 -75.77, 65.38 127.62 06/16/2025 20:00:44 -75.76, 65.43 127.62 1.32 2
8 06/18/2025 22:08:04 75.73,-146.29 52.30 06/18/2025 22:07:53 75.74,-146.39 52.31 2.99 11
9 06/21/2025 00:15:22 -75.75, 1.89 127.70 06/21/2025 00:15:12 -75.76, 1.88 127.69 1.05 10



Historial Predications of SNOs between AQUA and NOAA-19
